Regional Weather Roundup
Issued by NWS

Home | Current Version | Previous Version | Graphics & Text | Print | Product List | Glossary On
Versions: 1 2 3 4 5 6 7 8 9 10 11 12 13 14 15 16 17 18 19 20 21 22 23 24 25 26 27 28 29 30 31 32 33 34 35 36 37 38 39 40 41 42 43 44 45 46 47 48 49 50
000
ASUS43 KBIS 230410
RWRND
NORTH DAKOTA REGIONAL WEATHER ROUNDUP
NATIONAL WEATHER SERVICE EASTERN NORTH DAKOTA/GRAND FORKS ND
1000 PM CST THU FEB 22 2018

  NOTE: "FAIR" INDICATES FEW OR NO CLOUDS BELOW 12,000 FEET WITH NO
  SIGNIFICANT WEATHER AND/OR OBSTRUCTIONS TO VISIBILITY.

NDZ001>003-009>011-017-230500-
...NORTHWEST NORTH DAKOTA...

CITY           SKY/WX    TMP DP  RH WIND       PRES   REMARKS
WILLISTON      FAIR      -3  -8  79 SW3       30.26R
MINOT          FAIR       5  -1  76 SW5       30.21R WCI  -4
MINOT AFB      FAIR      -1  -6  80 NW6       30.20S WCI -12
$$

NDZ018>021-031>035-040>046-230500-
...SOUTHWEST NORTH DAKOTA...

CITY           SKY/WX    TMP DP  RH WIND       PRES   REMARKS
BISMARCK       CLOUDY    17  10  74 NW3       30.21F
DICKINSON      FAIR       6  -1  73 NW8       30.14S WCI  -7
GARRISON         N/A      4  -2  76 CALM      30.21S
HETTINGER      MOCLDY     0  -4  83 W7        30.15S WCI -13
$$

NDZ004>008-012>016-024-026-027-054-230500-
...NORTHEAST NORTH DAKOTA...

CITY           SKY/WX    TMP DP  RH WIND       PRES   REMARKS
GRAND FORKS    MOCLDY    19  16  88 CALM      30.26F
GRAND FORKS AF CLOUDY    19  14  79 W5        30.25F WCI  13
DEVILS LAKE    FAIR       3   1  91 NW5       30.23R WCI  -6
$$

NDZ022-023-025-028>030-036>039-047>053-230500-
...SOUTHEAST NORTH DAKOTA...

CITY           SKY/WX    TMP DP  RH WIND       PRES   REMARKS
JAMESTOWN      LGT SNOW  20  18  92 CALM      30.18F FOG
FARGO          LGT SNOW  22  20  92 MISG      30.24F FOG
WAHPETON       CLOUDY    23  19  86 E8        30.23F WCI  14
$$




USA.gov is the U.S. government's official web portal to all federal, state and local government web resources and services.